GW6771 Weather Reports


time (UTC)temp
F
wind
direction
speed
knots
gust
knots
rain 1hr
in
rain 24hr
in
rain mn
in
humidity
%
barometer
mb
20260507190017 56 45 2.6 3.5 0.00 0.00 0.00 65 1014.6
20260507185017 57 68 3.5 4.3 0.00 0.00 0.00 62 1014.5
20260507184017 58 90 3.5 5.2 0.00 0.00 0.00 62 1014.5
20260507183017 58 68 3.5 4.3 0.00 0.00 0.00 61 1014.3
20260507182037 59 90 1.7 3.5 0.00 0.00 0.00 60 1014.3
20260507181037 59 68 3.5 5.2 0.00 0.00 0.00 58 1014.3
20260507180017 59 68 3.5 7.0 0.00 0.00 0.00 55 1014.2
20260507175017 60 45 5.2 8.7 0.00 0.00 0.00 54 1014.2
20260507174016 61 68 3.5 7.0 0.00 0.00 0.00 54 1014.1
20260507173017 61 68 4.3 7.0 0.00 0.00 0.00 54 1014.2
20260507172017 61 23 4.3 6.1 0.00 0.00 0.00 54 1014.1
20260507171016 61 45 3.5 6.1 0.00 0.00 0.00 54 1014.2
20260507170017 62 0 2.6 3.5 0.00 0.00 0.00 55 1014.3
20260507165016 61 68 2.6 4.3 0.00 0.00 0.00 54 1014.3
20260507164016 61 45 4.3 7.0 0.00 0.00 0.00 54 1014.3
20260507163017 61 23 3.5 7.8 0.00 0.00 0.00 55 1014.4
20260507162017 61 23 1.7 2.6 0.00 0.00 0.00 53 1014.4
20260507161016 62 23 2.6 6.1 0.00 0.00 0.00 56 1014.5
20260507160017 62 0 3.5 7.8 0.00 0.00 0.00 53 1014.5
20260507155017 62 0 4.3 7.0 0.00 0.00 0.00 52 1014.4
20260507154016 61 23 3.5 6.1 0.00 0.00 0.00 52 1014.7
20260507153016 61 45 2.6 6.1 0.00 0.00 0.00 54 1014.6
20260507152016 61 68 3.5 7.0 0.00 0.00 0.00 55 1014.6
20260507151016 60 45 4.3 6.1 0.00 0.00 0.00 55 1014.7
20260507150016 61 68 3.5 5.2 0.00 0.00 0.00 56 1014.7
20260507145016 61 68 4.3 7.8 0.00 0.00 0.00 58 1014.7
20260507144017 63 113 3.5 5.2 0.00 0.00 0.00 51 1014.7
20260507143017 64 203 1.7 3.5 0.00 0.00 0.00 51 1014.8
20260507142016 62 158 2.6 7.0 0.00 0.00 0.00 54 1014.8
20260507141016 62 135 3.5 5.2 0.00 0.00 0.00 51 1015.0
20260507140017 61 203 0.9 2.6 0.00 0.00 0.00 54 1015.2
20260507135016 60 203 0.9 2.6 0.00 0.00 0.00 53 1015.3
20260507134016 60 248 1.7 2.6 0.00 0.00 0.00 54 1015.2
20260507133017 60 0.0 0.0 0.00 0.00 0.00 58 1015.3
20260507132016 59 90 2.6 7.0 0.00 0.00 0.00 58 1015.3
20260507131016 59 158 0.9 3.5 0.00 0.00 0.00 58 1015.3
20260507130016 60 90 3.5 6.1 0.00 0.00 0.00 56 1015.4
20260507125017 60 90 4.3 7.8 0.00 0.00 0.00 56 1015.3
20260507124016 59 90 5.2 7.8 0.00 0.00 0.00 59 1015.4
20260507123016 60 90 3.5 5.2 0.00 0.00 0.00 55 1015.4
20260507122016 60 338 4.3 7.8 0.00 0.00 0.00 59 1015.5
20260507121016 60 225 2.6 5.2 0.00 0.00 0.00 56 1015.6
20260507120016 60 45 2.6 7.0 0.00 0.00 0.00 57 1015.6
20260507115016 59 338 2.6 6.1 0.00 0.00 0.00 61 1015.5
20260507114016 59 0 3.5 6.1 0.00 0.00 0.00 59 1015.5
20260507113036 60 45 5.2 7.8 0.00 0.00 0.00 62 1015.6
20260507112016 60 68 3.5 7.8 0.00 0.00 0.00 62 1015.7
20260507111016 60 90 3.5 7.0 0.00 0.00 0.00 61 1015.7
20260507110016 59 90 2.6 4.3 0.00 0.00 0.00 59 1015.7
20260507105016 59 90 3.5 7.0 0.00 0.00 0.00 60 1015.7
20260507104036 59 293 0.9 2.6 0.00 0.00 0.00 59 1015.8
20260507103016 59 0 4.3 7.0 0.00 0.00 0.00 58 1015.9
20260507102016 58 338 2.6 7.0 0.00 0.00 0.00 63 1015.9
20260507101016 58 23 4.3 7.8 0.00 0.00 0.00 61 1015.9
20260507100016 58 68 2.6 4.3 0.00 0.00 0.00 63 1015.9
20260507095036 57 23 2.6 5.2 0.00 0.00 0.00 59 1015.8
20260507094016 58 23 2.6 8.7 0.00 0.00 0.00 62 1015.9
20260507093016 57 315 2.6 4.3 0.00 0.00 0.00 64 1015.8
20260507092016 57 338 4.3 5.2 0.00 0.00 0.00 64 1015.8
20260507091016 56 338 1.7 7.8 0.00 0.00 0.00 69 1015.7
20260507090016 56 338 4.3 8.7 0.00 0.00 0.00 73 1015.7
20260507085036 55 338 1.7 4.3 0.00 0.00 0.00 75 1015.6
20260507084036 55 68 1.7 4.3 0.00 0.00 0.00 76 1015.7
20260507083016 54 338 2.6 4.3 0.00 0.00 0.00 82 1015.6
20260507082016 54 338 1.7 5.2 0.00 0.00 0.00 86 1015.6
20260507081036 53 338 2.6 5.2 0.00 0.00 0.00 89 1015.7
20260507080016 52 0 1.7 2.6 0.00 0.00 0.00 90 1015.5
20260507075016 51 0 2.6 3.5 0.00 0.00 0.00 91 1015.7
20260507074036 50 0 1.7 3.5 0.00 0.00 0.00 93 1015.6
20260507073016 50 315 1.7 4.3 0.00 0.00 0.00 94 1015.5
20260507072016 48 338 0.9 1.7 0.00 0.00 0.00 94 1015.5
20260507071016 46 0.0 0.0 0.00 0.00 0.00 94 1015.4
20260507070016 45 0.0 0.0 0.00 0.00 0.00 94 1015.4
20260507065016 45 0.0 0.0 0.00 0.00 0.00 94 1015.4
20260507064016 45 0.0 0.0 0.00 0.00 0.00 94 1015.3
20260507063016 45 0.0 0.0 0.00 0.00 0.00 94 1015.2
20260507062016 45 0.0 0.0 0.00 0.01 0.00 94 1015.1
20260507061016 45 0.0 0.0 0.00 0.01 0.00 94 1015.1
20260507060036 45 0.0 0.0 0.00 0.01 0.00 95 1015.0
20260507055036 45 338 2.6 3.5 0.00 0.01 0.00 95 1014.9
20260507054036 43 23 1.7 3.5 0.00 0.01 0.00 94 1014.8
20260507053016 42 23 2.6 3.5 0.00 0.01 0.00 94 1014.8
20260507052056 42 0 3.5 3.5 0.00 0.01 0.00 94 1014.7
20260507051016 41 0 4.3 5.2 0.00 0.01 0.00 94 1014.6
20260507050016 41 0 5.2 7.0 0.00 0.01 0.00 93 1014.6
20260507045015 42 0 4.3 4.3 0.00 0.02 0.00 93 1014.6
20260507044015 42 338 3.5 4.3 0.00 0.02 0.00 93 1014.5
20260507043036 43 338 3.5 4.3 0.00 0.02 0.00 93 1014.4
20260507042036 43 338 4.3 6.1 0.00 0.02 0.00 94 1014.3
20260507041016 43 338 5.2 7.0 0.00 0.02 0.00 94 1014.3
20260507040016 43 338 5.2 6.1 0.00 0.02 0.00 94 1014.3
20260507035015 43 338 4.3 6.1 0.00 0.03 0.00 93 1014.3
20260507034036 43 338 4.3 5.2 0.00 0.03 0.00 93 1014.2
20260507033015 43 338 3.5 5.2 0.00 0.04 0.00 93 1014.2
20260507032015 43 338 3.5 5.2 0.00 0.04 0.00 93 1014.2
20260507031015 43 338 3.5 4.3 0.00 0.05 0.00 93 1014.2
20260507030015 43 338 3.5 5.2 0.00 0.05 0.00 93 1014.4
20260507025015 43 315 3.5 5.2 0.00 0.06 0.00 93 1014.3
20260507024035 43 315 2.6 4.3 0.00 0.06 0.00 93 1014.4
20260507023015 43 315 3.5 5.2 0.00 0.06 0.00 93 1014.4
20260507022015 43 315 3.5 4.3 0.00 0.06 0.00 93 1014.5
20260507021015 43 315 3.5 5.2 0.00 0.07 0.00 93 1014.3
20260507020015 43 315 3.5 5.2 0.00 0.07 0.00 92 1014.2
20260507015017 43 315 3.5 5.2 0.00 0.07 0.00 92 1014.1
20260507014017 43 315 3.5 4.3 0.00 0.07 0.00 92 1014.1
20260507013017 43 315 2.6 4.3 0.00 0.08 0.00 91 1014.0
20260507012017 44 338 3.5 5.2 0.00 0.08 0.00 92 1014.0
20260507011017 44 315 3.5 5.2 0.00 0.08 0.00 92 1014.0
20260507010037 44 315 3.5 5.2 0.00 0.09 0.00 92 1014.0
20260507005017 44 315 3.5 5.2 0.00 0.09 0.00 92 1014.0
20260507004017 44 315 4.3 6.1 0.00 0.09 0.00 92 1014.0
20260507003017 44 315 4.3 6.1 0.00 0.09 0.00 92 1014.0
20260507002017 44 315 4.3 6.1 0.00 0.09 0.00 92 1014.1
20260507001017 44 315 3.5 5.2 0.00 0.10 0.00 92 1014.0
20260507000017 44 315 3.5 5.2 0.00 0.10 0.00 92 1014.0
20260506235017 44 338 4.3 6.1 0.00 0.10 0.00 91 1014.0
20260506234017 44 315 4.3 5.2 0.00 0.10 0.00 91 1014.0
20260506233037 44 315 4.3 5.2 0.00 0.10 0.00 91 1013.9
20260506232017 44 315 3.5 5.2 0.00 0.11 0.00 91 1013.9
20260506231017 45 338 4.3 7.0 0.00 0.11 0.00 91 1013.9
20260506230017 45 315 3.5 6.1 0.00 0.11 0.00 92 1013.9
20260506225057 45 315 3.5 4.3 0.00 0.11 0.00 92 1013.9
20260506224017 45 315 3.5 5.2 0.00 0.12 0.00 92 1013.9
20260506223017 44 315 3.5 5.2 0.00 0.12 0.00 92 1013.8
20260506222037 44 315 3.5 6.1 0.00 0.13 0.00 92 1013.6
20260506221017 44 338 4.3 6.1 0.00 0.13 0.00 92 1013.7
20260506220017 44 338 4.3 7.0 0.00 0.13 0.13 91 1013.5
20260506215016 44 338 4.3 7.0 0.00 0.14 0.13 91 1013.4
20260506214015 43 338 5.2 7.8 0.00 0.15 0.13 91 1013.4
20260506213015 44 0 5.2 7.0 0.00 0.16 0.13 91 1013.3
20260506212055 43 0 5.2 7.0 0.00 0.17 0.13 90 1013.3
20260506211015 44 0 4.3 6.1 0.00 0.19 0.13 90 1013.2
20260506210015 44 0 4.3 6.1 0.00 0.20 0.13 89 1013.1
20260506205035 44 0 6.1 7.8 0.00 0.24 0.13 89 1013.1
20260506204035 45 0 5.2 7.0 0.00 0.25 0.13 89 1013.0
20260506203015 45 0 4.3 6.1 0.00 0.26 0.13 88 1013.0
20260506202015 45 0 5.2 6.1 0.00 0.27 0.13 88 1012.9
20260506201017 45 0 6.1 7.8 0.00 0.28 0.13 87 1012.8
20260506200017 46 0 6.1 7.8 0.00 0.28 0.13 87 1012.8
20260506195017 46 0 6.1 7.0 0.00 0.28 0.13 85 1012.6
20260506194017 47 0 6.1 7.8 0.00 0.30 0.13 83 1012.5
20260506193017 48 0 7.0 8.7 0.00 0.32 0.13 81 1012.3
20260506192017 49 338 7.0 8.7 0.00 0.35 0.13 79 1012.3
20260506191017 49 338 7.0 9.6 0.00 0.37 0.13 78 1012.2